User: anonymous   Login
Location: Vancouver
(49.2500°N, 123.1330°W)
Time: 20:44:14
(UTC-07:00)
Language:

Cosmos 1939 Rocket - Orbit

View from above orbital plane
View from above orbital plane
View from above satellite
View from above satellite

Ground track
Ground track

The orbit data is extracted from the following two-line orbital elements,

1 19046U 88032B   17268.57641821 -.00000035 +00000-0 +19572-5 0  9997
2 19046 097.5205 312.5404 0037474 356.7256 003.3718 15.02297106587429
Epoch (UTC): 25 September 2017 13:50:02
Eccentricity: 0.0037474
inclination: 97.5205°
perigee height: 534 km
apogee height: 586 km
right ascension of ascending node: 312.5404°
argument of perigee: 356.7256°
revolutions per day: 15.02297106
mean anomaly at epoch: 3.3718°
orbit number at epoch: 58742

The dashed part of the orbit path shows where the satellite is in the earth's shadow,  

DLR